Hourly Data Report for December 05, 2017

All times are specified in Local Standard Time (LST). Add 1 hour to adjust for Daylight Saving Time where and when it is observed.

REVELSTOKE A
BRITISH COLUMBIA

50°58'00.000" N
118°11'00.000" W
444.70 m
1176745
71685
YRV

Download Data

Hourly Data (December 2017)
Hourly Data Report for December 5, 2017
Temp Definition
°C
Dew Point Temp Definition
°C
Rel Hum Definition
%
Wind Dir Definition
10's deg

Wind Spd Definition
km/h
Visibility Definition
km
Stn Press Definition
kPa
Hmdx Definition


Wind Chill Definition


Weather Definition


TIME
00:00 Legend Double Dagger -1.5 -2.8 91   0 16.1 98.05     LegendNANA
01:00 Legend Double Dagger -1.8 -2.8 93 7 4 16.1 98.08   -3 LegendNANA
02:00 Legend Double Dagger -1.3 -2.4 92   0 16.1 98.13     LegendNANA
03:00 Legend Double Dagger -1.5 -2.5 93 2 5 16.1 98.18   -3 LegendNANA
04:00 Legend Double Dagger -1.8 -2.6 94 LegendMM 4 16.1 98.20   -3 LegendNANA
05:00 Legend Double Dagger -1.9 -2.9 93   0 11.3 98.23     LegendNANA
06:00 Legend Double Dagger -2.0 -2.8 94   0 16.1 98.29     LegendNANA
07:00 Legend Double Dagger -2.6 -3.4 94   0 16.1 98.24     LegendNANA
08:00 Legend Double Dagger -2.5 -3.3 94 LegendMM 4 16.1 98.36   -4 LegendNANA
09:00 Legend Double Dagger -1.8 -3.1 91 3 4 16.1 98.45   -3 LegendNANA
10:00 Legend Double Dagger -0.5 -3.5 80   0 16.1 98.47     LegendNANA
11:00 Legend Double Dagger 1.1 -3.5 71   0 16.1 98.48     LegendNANA
12:00 Legend Double Dagger 2.1 -3.3 68 32 8 16.1 98.44     LegendNANA
13:00 Legend Double Dagger 2.9 -3.3 64 25 8 16.1 98.46     LegendNANA
14:00 Legend Double Dagger 2.4 -2.3 71 22 4 16.1 98.50     LegendNANA
15:00 Legend Double Dagger 1.7 -2.3 75   0 16.1 98.54     LegendNANA
16:00 Legend Double Dagger -0.4 -2.3 87 29 5 16.1 98.61   -2 LegendNANA
17:00 Legend Double Dagger -1.1 -2.4 91   0 16.1 98.68     LegendNANA
18:00 Legend Double Dagger -1.9 -2.6 95   0 16.1 98.72     LegendNANA
19:00 Legend Double Dagger -1.8 -2.8 93   0 16.1 98.76     LegendNANA
20:00 Legend Double Dagger -2.0 -2.7 95   0 16.1 98.83     LegendNANA
21:00 Legend Double Dagger -2.1 -2.7 95   0 16.1 98.85     LegendNANA
22:00 Legend Double Dagger -2.2 -2.9 95   0 16.1 98.87     LegendNANA
23:00 Legend Double Dagger -2.0 -3.0 93   0 16.1 98.93     LegendNANA

Notes on Data Quality.

Legend

  • E = Estimated
  • M = Missing
  • NA = Not Available
  • ‡ = Partner data that is not subject to review by the National Climate Archives
Date modified: